{"data":{"norad_id":68025,"intl_designator":"2026-040L","name":"STARLINK-36378","alt_names":[],"object_type":"PAYLOAD","status":"ACTIVE","operator":null,"country":"US","launch_date":"2026-03-01","launch_site_code":"AFWTR","launch_vehicle":null,"mission":null,"orbit_class":"UNKNOWN","rcs_meters":null,"size_class":null,"mass_kg":null,"dimensions":null,"purposes":["comms"],"wikipedia_slug":null,"has_3d_model":false,"image_url":null,"decayed_at":null,"tle_current":{"epoch":"2026-05-24T20:13:24.636000Z","epoch_age_seconds":91858,"freshness":"FRESH","line1":"1 68025U 26040L   26144.84264625  .00022725  00000+0  70421-3 0  9991","line2":"2 68025  97.2842  93.8625 0001685  91.6452 268.4984 15.33441017 13133","mean_motion":15.33441017,"eccentricity":0.0001685,"inclination_deg":97.2842,"raan_deg":93.8625,"arg_perigee_deg":91.6452,"mean_anomaly_deg":268.4984,"bstar":0.00070421,"rev_number":1313,"period_min":93.906448571279,"perigee_km":464.40186300327,"apogee_km":466.70818721573,"semimajor_km":6843.6920251095,"source":"CELESTRAK","updated_at":"2026-05-25T13:38:21.806305Z"}}}